E7853 Weather Reports


Display with metric or nautical units.
time (UTC)temp
F
wind
direction
speed
MPH
gust
MPH
rain 1hr
in
rain 24hr
in
rain mn
in
humidity
%
barometer
mb
20260505083124 42 90 0.0 0.0 0.00 0.07 0.02 94 1003.8
20260505082122 42 90 0.0 0.0 0.00 0.07 0.02 94 1003.8
20260505081122 42 90 0.0 0.0 0.00 0.07 0.02 94 1003.7
20260505080122 42 90 0.0 0.0 0.00 0.07 0.02 94 1003.9
20260505075122 42 90 0.0 0.0 0.00 0.07 0.02 95 1003.9
20260505074122 42 90 0.0 1.0 0.00 0.07 0.02 95 1004.0
20260505073122 42 90 0.0 2.0 0.00 0.07 0.02 95 1004.2
20260505072126 42 90 0.0 2.0 0.00 0.07 0.02 95 1004.2
20260505071122 42 90 0.0 0.0 0.01 0.07 0.02 95 1004.2
20260505070123 43 90 0.0 0.0 0.02 0.07 0.02 95 1004.2
20260505065124 43 90 0.0 0.0 0.03 0.07 0.02 95 1004.2
20260505064122 43 90 0.0 3.0 0.03 0.07 0.02 95 1004.2
20260505063122 43 84 1.0 3.0 0.03 0.07 0.02 95 1003.9
20260505062122 42 292 0.0 2.0 0.03 0.07 0.02 95 1004.4
20260505061122 42 305 1.0 3.0 0.02 0.06 0.01 95 1004.5
20260505060122 43 319 1.0 3.0 0.01 0.05 0.00 94 1004.5
20260505055122 43 293 1.0 3.0 0.00 0.04 0.04 93 1004.7
20260505054141 43 270 1.0 4.0 0.00 0.04 0.04 92 1004.5
20260505053122 43 270 1.0 3.0 0.00 0.04 0.04 91 1004.5
20260505052122 43 270 0.0 3.0 0.00 0.04 0.04 90 1004.5
20260505051141 43 270 0.0 0.0 0.00 0.04 0.04 88 1004.4
20260505050128 43 270 0.0 0.0 0.00 0.04 0.04 88 1004.4
20260505041122 43 289 2.0 5.0 0.01 0.04 0.04 92 1003.7
20260505040123 43 292 2.0 3.0 0.01 0.04 0.04 92 1003.7
20260505035122 43 292 2.0 4.0 0.01 0.04 0.04 92 1004.0
20260505034122 43 291 3.0 7.0 0.01 0.04 0.04 91 1003.8
20260505033123 43 286 3.0 5.0 0.01 0.04 0.04 91 1003.6
20260505032125 43 295 2.0 4.0 0.00 0.03 0.03 90 1003.9
20260505031141 43 279 3.0 5.0 0.00 0.03 0.03 90 1003.9
20260505030122 43 270 3.0 5.0 0.00 0.03 0.03 91 1003.9
20260505025141 43 270 2.0 4.0 0.01 0.03 0.03 91 1003.8
20260505024141 43 270 2.0 3.0 0.02 0.03 0.03 91 1003.5
20260505023122 44 274 1.0 5.0 0.03 0.03 0.03 88 1003.5
20260505022122 44 293 3.0 5.0 0.03 0.03 0.03 88 1003.7
20260505021122 44 224 2.0 3.0 0.03 0.03 0.03 86 1003.9
20260505020122 45 232 2.0 4.0 0.03 0.03 0.03 84 1003.8
20260505015122 46 247 3.0 4.0 0.02 0.02 0.02 83 1003.8
20260505014122 47 109 3.0 6.0 0.01 0.01 0.01 76 1003.7
20260505013124 49 321 4.0 12.0 0.00 0.00 0.00 66 1003.4
20260505012122 52 327 3.0 5.0 0.00 0.00 0.00 58 1003.2
20260505011122 52 297 3.0 5.0 0.00 0.00 0.00 56 1002.6
20260505010122 53 291 3.0 7.0 0.00 0.00 0.00 54 1002.6
20260505005122 53 298 4.0 8.0 0.00 0.00 0.00 53 1002.4
20260505004122 54 283 4.0 7.0 0.00 0.00 0.00 52 1002.4
20260505003122 55 285 3.0 7.0 0.00 0.00 0.00 51 1002.3
20260505002125 56 268 3.0 8.0 0.00 0.00 0.00 49 1002.3
20260505001122 57 276 3.0 6.0 0.00 0.00 0.00 46 1002.3
20260505000122 58 331 3.0 7.0 0.00 0.00 0.00 46 1002.3
20260504235122 58 289 3.0 5.0 0.00 0.00 0.00 47 1002.2
20260504234123 57 220 3.0 7.0 0.00 0.00 0.00 48 1002.3
20260504233122 59 223 3.0 7.0 0.00 0.00 0.00 45 1002.3
20260504232122 59 322 4.0 8.0 0.00 0.00 0.00 43 1002.2
20260504231122 59 360 3.0 4.0 0.00 0.00 0.00 43 1002.1
20260504230122 60 360 2.0 4.0 0.00 0.00 0.00 42 1002.0
20260504225125 61 324 2.0 4.0 0.00 0.00 0.00 41 1002.0
20260504224122 61 90 1.0 3.0 0.00 0.00 0.00 39 1002.0
20260504223122 62 90 2.0 4.0 0.00 0.00 0.00 40 1002.1
20260504222122 60 90 2.0 4.0 0.00 0.00 0.00 43 1002.0
20260504221122 59 133 2.0 4.0 0.00 0.00 0.00 40 1002.2
20260504220124 57 116 6.0 13.0 0.00 0.00 0.00 44 1002.3
20260504215122 60 101 6.0 9.0 0.00 0.00 0.00 41 1002.3
20260504214125 64 338 3.0 5.0 0.00 0.00 0.00 35 1001.9
20260504213122 64 316 3.0 6.0 0.00 0.00 0.00 35 1001.7
20260504212141 65 322 3.0 6.0 0.00 0.00 0.00 32 1001.7
20260504211122 64 285 3.0 5.0 0.00 0.00 0.00 33 1001.7
20260504210122 64 163 2.0 4.0 0.00 0.00 0.00 31 1001.7
20260504205143 65 103 3.0 5.0 0.00 0.00 0.00 31 1001.7
20260504204122 69 123 3.0 4.0 0.00 0.00 0.00 29 1001.9
20260504203122 65 322 3.0 7.0 0.00 0.00 0.00 32 1002.0
20260504202141 63 337 3.0 5.0 0.00 0.00 0.00 33 1002.3
20260504201122 63 337 1.0 4.0 0.00 0.00 0.00 31 1002.3
20260504200141 62 337 3.0 4.0 0.00 0.00 0.00 33 1002.3
20260504195122 62 337 2.0 4.0 0.00 0.00 0.00 34 1002.3
20260504194122 62 337 3.0 5.0 0.00 0.00 0.00 35 1002.4
20260504193122 63 337 3.0 5.0 0.00 0.00 0.00 35 1002.3
20260504192122 65 328 3.0 6.0 0.00 0.00 0.00 33 1002.4
20260504191122 63 317 3.0 5.0 0.00 0.00 0.00 33 1002.4
20260504190122 66 311 4.0 7.0 0.00 0.00 0.00 32 1002.4
20260504185122 65 315 3.0 5.0 0.00 0.00 0.00 34 1002.7
20260504184122 61 337 1.0 7.0 0.00 0.00 0.00 36 1003.0
20260504183122 61 337 2.0 3.0 0.00 0.00 0.00 33 1003.0
20260504182122 61 337 1.0 3.0 0.00 0.00 0.00 33 1003.0
20260504181124 61 337 1.0 3.0 0.00 0.00 0.00 33 1003.2
20260504180122 62 330 2.0 4.0 0.00 0.00 0.00 33 1003.4
20260504175123 63 318 3.0 8.0 0.00 0.00 0.00 33 1003.4
20260504174122 67 318 3.0 7.0 0.00 0.00 0.00 33 1003.5
20260504173141 63 329 3.0 7.0 0.00 0.00 0.00 38 1003.7
20260504172122 62 320 4.0 9.0 0.00 0.00 0.00 39 1003.8
20260504171122 62 309 3.0 7.0 0.00 0.00 0.00 39 1003.9
20260504170122 61 338 4.0 7.0 0.00 0.00 0.00 41 1003.8
20260504160122 60 25 3.0 5.0 0.00 0.00 0.00 41 1004.0
20260504151122 60 32 3.0 8.0 0.00 0.00 0.00 41 1004.1
20260504150122 59 337 4.0 9.0 0.00 0.00 0.00 42 1004.1
20260504141122 55 336 2.0 4.0 0.00 0.00 0.00 45 1003.9
20260504140122 55 354 3.0 6.0 0.00 0.00 0.00 45 1003.9
20260504130122 48 360 2.0 4.0 0.00 0.00 0.00 53 1003.9
20260504120123 45 315 2.0 3.0 0.00 0.00 0.00 53 1003.8
20260504110124 44 315 2.0 3.0 0.00 0.00 0.00 52 1004.0
20260504100122 44 315 2.0 3.0 0.00 0.00 0.00 56 1004.1
20260504090122 44 315 1.0 2.0 0.00 0.00 0.00 55 1004.3